Showing default

NEMO-HD, 46277

Orbit data source: Space-Track

NEMO-HD, 46277 is a payload satellite owned by Space-SI (SI) in SSO that was launched on Thu, 03 Sep 2020 UTC via a VEGA launch vehicle from the French Guiana (FRGUI). Payload-class satellites include a variety of spacecraft equipped with specific instruments for various scientific and technological missions. These include communications satellites like Starlink; space stations such as the ISS; scientific satellites like the Hubble; Earth observation satellites from companies like Planet Labs, Umbra, and HawkEye 360; GPS; miniature CubeSats for education and research; and military/defense satellites.

Loading next visibility...
Identifier
46277, 2020-061F
Orbit
SSO
Country
Flag of SISI / SVN
Related business
Manufacturer
UTIAS-SFL
Mission
Operational Amateur Imaging
Bus & Motor
NEMO-HD, Unknown motor
Mass
65 kg wet, 65 kg dry
Launch date (UTC)
2020-09-03 (5 years ago)
Launch vehicle
VEGA
Launch site
French Guiana (FRGUI)
Object type
Payload
Rocket body
Debris
Shape & HBR
Oct Cyl, Unknown HBR
Radar Cross Section
0.165 m², Medium (>0.1 m² and < 1m²)

Expand to show TLE details & history
Last TLE update: 5 hours ago

TLE from 5 hours ago
0 NEMO-HD
1 46277U 20061F   25312.18734980  .00015176  00000-0  39092-3 0  9994
2 46277  97.2256  11.7417 0002683 104.3135 255.8409 15.39300508287921
Epoch: 2025-11-08T04:29Z
TLE epoch observation values (Epoch: 2025-11-08T04:29:47.022Z)
Latitude
-0.00005°
Longitude
-103.32478°
Altitude
451.747 km
Speed
7.641 km/s
True Right ascension
00h 46m 58s
True Declination
0° 00' 00"
Sunlit
Object was in full shadow at epoch
Visualization orbit readout
Latitude
Unknown
Longitude
Unknown
Altitude
Unknown
Speed
Unknown
Apparent Right ascension
Unknown
Apparent Declination
Unknown
Sunlit
N/A
Visualization observer readout
Local Sidereal Time
05:31:48
Azimuth
Unknown
Elevation
Unknown
Doppler factor
Unknown
Orbital elements
Apogee altitude
446.94 km
Perigee altitude
443.278 km
Semi-major axis
6,823.246 km
Eccentricity
0.00027
Inclination
97.2256°
RAAN
11.7417°
Arg. of periapsis
104.3135°
True anomaly
255.81109°
Mean anomaly
255.8409°
Eccentric anomaly
255.826°
Mean motion
3.85085 °/min
Orbital period
93.49 mins
BSTAR
0.00039092
Loading maneuver chart data...
Computing Atmospheric mass density...
Loading historical data...
Loading historical data...
Loading historical data...
Loading historical data...
Loading historical data...
Loading historical data...
Loading historical data...

Documentation

Showing up to 5 results
|